Omak, WA

2:29 PM PDT on April 28, 2017 (GMT -0700)
Omak

Weather History for KOMK - August, 2013

Change the Weather History Date:

Tuesday, August 27, 2013

  Actual Average Record
Temperature  
Mean Temperature 68 °F 70 °F  
Max Temperature 83 °F 85 °F 97 °F (1934)
Min Temperature 52 °F 54 °F 37 °F (1960)
Degree Days  
Heating Degree Days 0 1  
Month to date heating degree days 0 7  
Since 1 June heating degree days 67 91  
Since 1 July heating degree days 0 22  
Cooling Degree Days 3 6  
Month to date cooling degree days 227 226  
Year to date cooling degree days 663 587  
Since 1 June cooling degree days 640 564  
Growing Degree Days 18 (Base 50)    
Moisture  
Dew Point 49 °F    
Average Humidity 56    
Maximum Humidity 83    
Minimum Humidity 28    
Precipitation  
Precipitation 0.00 in 0.01 in 0.96 in (1951)
Month to date precipitation 1.14 0.43  
Year to date precipitation 7.24 9.22  
Sea Level Pressure  
Sea Level Pressure 29.88 in    
Wind  
Wind Speed 4 mph (West)    
Max Wind Speed 13 mph    
Max Gust Speed 18 mph    
Visibility 10 miles    
Events      
T = Trace of Precipitation, MM = Missing Value Source: NWS Daily Summary

Daily Weather History Graph

Daily Weather History Graph

Search for Another Location

Airport or City:

Trip Planner

Search our weather history database for the weather conditions in past years. The results will help you decide how hot, cold, wet, or windy it might be!

Date:

Astronomy

Aug. 27, 2013 Rise Set
Actual Time 6:08 AM PDT 7:49 PM PDT
Civil Twilight 5:35 AM PDT 8:21 PM PDT
Nautical Twilight 4:55 AM PDT 9:02 PM PDT
Astronomical Twilight 4:11 AM PDT 9:45 PM PDT
Moon 11:09 PM PDT (8/27) 1:47 PM PDT (8/27)
Length of Visible Light 14h 45m
Length of Day
13h 40m
Waning Gibbous, 56% of the Moon is Illuminated
Aug 27
Waning Gibbous
Aug 28
Last Quarter
Sep 5
New
Sep 12
First Quarter
Sep 19
Full

Hourly Weather History & Observations

Time (PDT) Temp. Dew Point Humidity Pressure Visibility Wind Dir Wind Speed Gust Speed Precip Events Conditions
12:53 AM 60.1 °F 48.9 °F 67% 29.91 in 10.0 mi Calm Calm - N/A   Clear
1:53 AM 60.1 °F 50.0 °F 69% 29.91 in 10.0 mi WNW 3.5 mph - N/A   Clear
2:53 AM 57.0 °F 51.1 °F 81% 29.92 in 10.0 mi Calm Calm - N/A   Clear
3:53 AM 55.9 °F 50.0 °F 80% 29.92 in 10.0 mi WNW 4.6 mph - N/A   Scattered Clouds
4:53 AM 53.1 °F 48.9 °F 86% 29.94 in 10.0 mi Calm Calm - N/A   Partly Cloudy
5:53 AM 55.0 °F 50.0 °F 83% 29.94 in 10.0 mi Calm Calm - N/A   Mostly Cloudy
6:53 AM 57.0 °F 51.1 °F 81% 29.96 in 10.0 mi Calm Calm - N/A   Overcast
7:53 AM 64.0 °F 51.1 °F 63% 29.95 in 10.0 mi NNE 3.5 mph - N/A   Scattered Clouds
8:53 AM 66.0 °F 51.1 °F 59% 29.96 in 10.0 mi ENE 3.5 mph - N/A   Clear
9:53 AM 69.1 °F 51.1 °F 53% 29.95 in 10.0 mi ESE 4.6 mph - N/A   Clear
10:53 AM 73.0 °F 50.0 °F 44% 29.94 in 10.0 mi South 3.5 mph - N/A   Clear
11:53 AM 78.1 °F 50.0 °F 37% 29.91 in - Variable 3.5 mph - N/A   Unknown
12:53 PM 79.0 °F 48.0 °F 34% 29.90 in 10.0 mi SSE 6.9 mph - N/A   Partly Cloudy
1:53 PM 80.1 °F 46.9 °F 31% 29.87 in 10.0 mi SE 5.8 mph - N/A   Scattered Clouds
2:53 PM 82.0 °F 46.9 °F 29% 29.86 in 10.0 mi ESE 3.5 mph - N/A   Partly Cloudy
3:53 PM 82.0 °F 46.9 °F 29% 29.83 in 10.0 mi SW 4.6 mph - N/A   Clear
4:53 PM 82.0 °F 46.0 °F 28% 29.81 in 10.0 mi WSW 3.5 mph - N/A   Clear
5:53 PM 82.0 °F 46.0 °F 28% 29.80 in 10.0 mi SW 4.6 mph - N/A   Clear
6:53 PM 81.0 °F 46.9 °F 30% 29.79 in 10.0 mi Calm Calm - N/A   Scattered Clouds
7:53 PM 72.0 °F 48.9 °F 44% 29.80 in 10.0 mi Calm Calm - N/A   Clear
8:53 PM 70.0 °F 48.9 °F 47% 29.80 in 10.0 mi WNW 9.2 mph - N/A   Clear
9:53 PM 70.0 °F 48.0 °F 46% 29.80 in 10.0 mi WNW 9.2 mph - N/A   Clear
10:53 PM 64.9 °F 46.9 °F 52% 29.80 in 10.0 mi NW 5.8 mph - N/A   Clear
11:53 PM 63.0 °F 46.9 °F 56% 29.81 in 10.0 mi NNW 5.8 mph - N/A   Clear